When you browse on this site, cookies collect data to enhance your experience and personalize the content and advertising you see.
Visit our Privacy Policy to learn more. By continuing to use the site, you agree to this use of cookies and data.
  • In Österreich
  • Länderverzeichnis
  • Für 7 Tage
  • Wassertemperatur
  • Satellitenkarten
  • Wetterkarte
  • News
  • Widgets
  • user-avatar
    Anmelden

    Stündliche Wetter Sunnyvale

    Heute, 17 Juli, Mittwoch

    Zeit Temperatur Niederschläge Wind Luftdruck Luftfeuchtigkeit
    00:00 +16°C° 0 mm 2 m/S 755 mmHg 84%
    01:00 +16°C° 0 mm 1 m/S 755 mmHg 85%
    02:00 +16°C° 0 mm 2 m/S 755 mmHg 86%
    03:00 +15°C° 0 mm 2 m/S 755 mmHg 86%
    04:00 +15°C° 0 mm 2 m/S 754 mmHg 86%
    05:00 +16°C° 0 mm 2 m/S 755 mmHg 83%
    06:00 +17°C° 0 mm 2 m/S 755 mmHg 80%
    07:00 +17°C° 0 mm 2 m/S 755 mmHg 76%
    08:00 +20°C° 0 mm 2 m/S 755 mmHg 64%
    09:00 +24°C° 0 mm 1 m/S 755 mmHg 52%
    10:00 +27°C° 0 mm 1 m/S 755 mmHg 40%
    11:00 +29°C° 0 mm 1 m/S 755 mmHg 36%
    12:00 +31°C° 0 mm 2 m/S 755 mmHg 32%
    13:00 +34°C° 0 mm 2 m/S 755 mmHg 28%
    14:00 +32°C° 0 mm 2 m/S 754 mmHg 30%
    15:00 +32°C° 0 mm 2 m/S 754 mmHg 32%
    16:00 +31°C° 0 mm 3 m/S 754 mmHg 34%
    17:00 +29°C° 0 mm 2 m/S 754 mmHg 41%
    18:00 +26°C° 0 mm 2 m/S 754 mmHg 48%
    19:00 +24°C° 0 mm 1 m/S 754 mmHg 55%
    20:00 +23°C° 0 mm 1 m/S 754 mmHg 59%
    21:00 +21°C° 0 mm 1 m/S 754 mmHg 63%
    22:00 +20°C° 0 mm 1 m/S 754 mmHg 68%
    23:00 +20°C° 0 mm 1 m/S 754 mmHg 70%

    Morgen, 18 Juli, Donnerstag

    Zeit Temperatur Niederschläge Wind Luftdruck Luftfeuchtigkeit
    00:00 +19°C° 0 mm 1 m/S 754 mmHg 72%
    01:00 +18°C° 0 mm 2 m/S 754 mmHg 74%
    02:00 +17°C° 0 mm 2 m/S 754 mmHg 76%
    03:00 +17°C° 0 mm 2 m/S 754 mmHg 79%
    04:00 +16°C° 0 mm 2 m/S 754 mmHg 81%
    05:00 +17°C° 0 mm 2 m/S 755 mmHg 79%
    06:00 +18°C° 0 mm 2 m/S 755 mmHg 77%
    07:00 +18°C° 0 mm 2 m/S 755 mmHg 75%
    08:00 +21°C° 0 mm 2 m/S 755 mmHg 67%
    09:00 +24°C° 0 mm 2 m/S 755 mmHg 59%
    10:00 +27°C° 0 mm 2 m/S 755 mmHg 51%
    11:00 +28°C° 0 mm 2 m/S 755 mmHg 49%
    12:00 +29°C° 0 mm 3 m/S 755 mmHg 47%
    13:00 +29°C° 0 mm 3 m/S 755 mmHg 45%
    14:00 +29°C° 0 mm 3 m/S 755 mmHg 47%
    15:00 +28°C° 0 mm 3 m/S 754 mmHg 48%
    16:00 +28°C° 0 mm 3 m/S 754 mmHg 50%
    17:00 +26°C° 0 mm 3 m/S 754 mmHg 58%
    18:00 +24°C° 0 mm 2 m/S 754 mmHg 65%
    19:00 +21°C° 0 mm 2 m/S 754 mmHg 72%
    20:00 +19°C° 0 mm 2 m/S 754 mmHg 77%
    21:00 +18°C° 0 mm 2 m/S 755 mmHg 82%
    22:00 +18°C° 0 mm 1 m/S 755 mmHg 87%
    23:00 +17°C° 0 mm 2 m/S 755 mmHg 87%

    übermorgen, 19 Juli, Freitag

    Zeit Temperatur Niederschläge Wind Luftdruck Luftfeuchtigkeit
    00:00 +16°C° 0 mm 2 m/S 755 mmHg 87%
    01:00 +16°C° 0 mm 2 m/S 754 mmHg 87%
    02:00 +16°C° 0 mm 2 m/S 754 mmHg 87%
    03:00 +16°C° 0 mm 2 m/S 754 mmHg 86%
    04:00 +16°C° 0 mm 2 m/S 754 mmHg 86%
    05:00 +16°C° 0 mm 2 m/S 755 mmHg 82%
    06:00 +17°C° 0 mm 2 m/S 755 mmHg 79%
    07:00 +17°C° 0 mm 2 m/S 755 mmHg 76%
    08:00 +20°C° 0 mm 2 m/S 755 mmHg 67%
    09:00 +23°C° 0 mm 2 m/S 755 mmHg 59%
    10:00 +25°C° 0 mm 2 m/S 756 mmHg 51%
    11:00 +26°C° 0 mm 2 m/S 755 mmHg 47%
    12:00 +28°C° 0 mm 3 m/S 755 mmHg 43%
    13:00 +29°C° 0 mm 3 m/S 755 mmHg 40%
    14:00 +29°C° 0 mm 3 m/S 755 mmHg 41%
    15:00 +28°C° 0 mm 3 m/S 755 mmHg 42%
    16:00 +28°C° 0 mm 3 m/S 754 mmHg 43%
    17:00 +26°C° 0 mm 3 m/S 754 mmHg 51%
    18:00 +23°C° 0 mm 2 m/S 754 mmHg 59%
    19:00 +20°C° 0 mm 2 m/S 754 mmHg 67%
    20:00 +19°C° 0 mm 2 m/S 755 mmHg 73%
    21:00 +17°C° 0 mm 2 m/S 755 mmHg 79%
    22:00 +16°C° 0 mm 2 m/S 755 mmHg 85%
    23:00 +16°C° 0 mm 2 m/S 755 mmHg 85%

    20 Juli, Samstag

    Zeit Temperatur Niederschläge Wind Luftdruck Luftfeuchtigkeit
    00:00 +15°C° 0 mm 2 m/S 755 mmHg 86%
    01:00 +15°C° 0 mm 2 m/S 755 mmHg 86%
    02:00 +15°C° 0 mm 2 m/S 755 mmHg 86%
    03:00 +15°C° 0 mm 2 m/S 755 mmHg 87%
    04:00 +15°C° 0 mm 2 m/S 755 mmHg 87%
    05:00 +16°C° 0 mm 2 m/S 755 mmHg 84%
    06:00 +16°C° 0 mm 2 m/S 755 mmHg 81%
    07:00 +17°C° 0 mm 2 m/S 756 mmHg 78%
    08:00 +20°C° 0 mm 2 m/S 756 mmHg 68%
    09:00 +23°C° 0 mm 2 m/S 756 mmHg 57%
    10:00 +26°C° 0 mm 2 m/S 756 mmHg 47%
    11:00 +28°C° 0 mm 2 m/S 756 mmHg 43%
    12:00 +29°C° 0 mm 2 m/S 755 mmHg 39%
    13:00 +31°C° 0 mm 2 m/S 755 mmHg 35%
    14:00 +30°C° 0 mm 2 m/S 755 mmHg 37%
    15:00 +30°C° 0 mm 3 m/S 754 mmHg 39%
    16:00 +29°C° 0 mm 3 m/S 754 mmHg 41%
    17:00 +27°C° 0 mm 2 m/S 754 mmHg 49%
    18:00 +24°C° 0 mm 2 m/S 754 mmHg 58%
    19:00 +21°C° 0 mm 2 m/S 754 mmHg 66%
    20:00 +21°C° 0 mm 1 m/S 754 mmHg 71%
    21:00 +19°C° 0 mm 1 m/S 754 mmHg 76%
    22:00 +18°C° 0 mm 1 m/S 755 mmHg 81%
    23:00 +18°C° 0 mm 1 m/S 755 mmHg 82%

    21 Juli, Sonntag

    Zeit Temperatur Niederschläge Wind Luftdruck Luftfeuchtigkeit
    00:00 +16°C° 0 mm 1 m/S 754 mmHg 82%
    01:00 +16°C° 0 mm 1 m/S 754 mmHg 82%
    02:00 +16°C° 0 mm 1 m/S 754 mmHg 82%
    03:00 +16°C° 0 mm 1 m/S 754 mmHg 82%
    04:00 +15°C° 0 mm 1 m/S 755 mmHg 81%
    05:00 +16°C° 0 mm 1 m/S 755 mmHg 77%
    06:00 +19°C° 0 mm 1 m/S 755 mmHg 72%
    07:00 +20°C° 0 mm 1 m/S 755 mmHg 67%
    08:00 +23°C° 0 mm 1 m/S 755 mmHg 57%
    09:00 +26°C° 0 mm 1 m/S 755 mmHg 47%
    10:00 +29°C° 0 mm 1 m/S 755 mmHg 37%
    11:00 +30°C° 0 mm 2 m/S 755 mmHg 35%
    12:00 +31°C° 0 mm 2 m/S 755 mmHg 33%
    13:00 +34°C° 0 mm 2 m/S 755 mmHg 32%
    14:00 +32°C° 0 mm 2 m/S 754 mmHg 33%
    15:00 +32°C° 0 mm 2 m/S 754 mmHg 34%
    16:00 +31°C° 0 mm 2 m/S 753 mmHg 36%
    17:00 +29°C° 0 mm 2 m/S 754 mmHg 43%
    18:00 +26°C° 0 mm 2 m/S 754 mmHg 51%
    19:00 +24°C° 0 mm 1 m/S 754 mmHg 58%
    20:00 +22°C° 0 mm 1 m/S 754 mmHg 62%
    21:00 +21°C° 0 mm 1 m/S 754 mmHg 66%
    22:00 +19°C° 0 mm 1 m/S 754 mmHg 70%
    23:00 +19°C° 0 mm 1 m/S 754 mmHg 70%

    22 Juli, Montag

    Zeit Temperatur Niederschläge Wind Luftdruck Luftfeuchtigkeit
    00:00 +19°C° 0 mm 1 m/S 754 mmHg 70%
    01:00 +18°C° 0 mm 1 m/S 754 mmHg 70%
    02:00 +18°C° 0 mm 1 m/S 754 mmHg 69%
    03:00 +18°C° 0 mm 1 m/S 754 mmHg 68%
    04:00 +18°C° 0 mm 1 m/S 754 mmHg 67%
    05:00 +20°C° 0 mm 1 m/S 754 mmHg 62%
    06:00 +21°C° 0 mm 1 m/S 755 mmHg 57%
    07:00 +22°C° 0 mm 1 m/S 755 mmHg 52%
    08:00 +25°C° 0 mm 1 m/S 755 mmHg 44%
    09:00 +28°C° 0 mm 1 m/S 755 mmHg 37%
    10:00 +31°C° 0 mm 1 m/S 755 mmHg 29%
    11:00 +32°C° 0 mm 1 m/S 755 mmHg 28%
    12:00 +34°C° 0 mm 2 m/S 755 mmHg 27%
    13:00 +35°C° 0 mm 2 m/S 755 mmHg 26%
    14:00 +34°C° 0 mm 2 m/S 755 mmHg 28%
    15:00 +32°C° 0 mm 2 m/S 755 mmHg 30%
    16:00 +32°C° 0 mm 2 m/S 755 mmHg 32%
    17:00 +29°C° 0 mm 2 m/S 755 mmHg 40%
    18:00 +26°C° 0 mm 2 m/S 755 mmHg 49%
    19:00 +24°C° 0 mm 2 m/S 755 mmHg 58%
    20:00 +22°C° 0 mm 1 m/S 756 mmHg 64%
    21:00 +20°C° 0 mm 1 m/S 756 mmHg 70%
    22:00 +19°C° 0 mm 1 m/S 756 mmHg 76%
    23:00 +19°C° 0 mm 1 m/S 756 mmHg 76%
    Mehr zeigen